DateTimeUTC,F1_A11,F1_S11,BsB_S11,BsG_S11,BsR_S11,BbsB_S11,BbsG_S11,BbsR_S11,BaB_A11,BaG_A11,BaR_A11,Tu_S11,T_S11,Uu_S11,U_S11,P_S11,T1_A11
2021-02-06T18:00:00Z,00000200,21000000,,,,,,,0000.12,0000.06,0000.01,15.8,23.1,,00.0,0654.5,30.9
2021-02-06T18:01:00Z,00000200,21000000,,,,,,,0000.07,-000.08,0000.27,15.8,23.1,,00.0,0654.5,30.9
2021-02-06T18:02:00Z,00000200,21000000,,,,,,,-000.07,0000.34,-000.18,15.7,23.1,,00.0,0654.5,30.9
2021-02-06T18:03:00Z,00000200,61000000,,,,,,,0000.04,0000.04,0000.18,15.8,23.1,,00.0,0654.5,30.9
2021-02-06T18:04:00Z,00000200,41000000,0000.85,-000.18,0000.15,0000.20,0000.07,-000.10,0000.02,-000.18,0000.06,16.0,22.9,,00.0,0655.4,30.9
2021-02-06T18:05:00Z,00000200,01000000,0000.33,0000.07,-000.32,0000.26,0000.12,-000.06,0000.26,0000.33,0000.09,16.0,22.9,,00.0,0655.5,30.9
2021-02-06T18:06:00Z,00000200,01000000,-000.06,0000.16,0000.17,0000.66,-000.02,-000.05,-000.03,-000.49,-000.41,16.0,22.8,,00.0,0655.5,30.9
2021-02-06T18:07:00Z,00000200,01000000,-000.35,-000.12,0000.07,0000.15,0000.29,-000.19,-000.05,0000.58,0000.22,15.9,22.8,,00.0,0655.5,30.9
2021-02-06T18:08:00Z,00000200,01000000,0000.66,0000.15,0000.21,-000.02,-000.03,0000.41,-000.02,-000.28,0000.04,15.9,22.8,,00.0,0655.6,30.9
2021-02-06T18:09:00Z,00000200,01000000,-000.27,0000.00,0000.05,0000.03,-000.01,-000.02,-000.26,0000.00,-000.17,15.8,22.7,,00.0,0655.6,30.9
2021-02-06T18:10:00Z,00000200,01000000,-000.43,-000.09,0000.19,0000.53,0000.32,0000.08,0000.53,0000.01,0000.10,15.8,22.7,,00.0,0655.6,30.9
2021-02-06T18:11:00Z,00000200,01000000,0000.34,0000.22,0000.28,0000.74,-000.01,0000.26,0000.43,0000.45,0000.56,15.8,22.7,,00.0,0655.6,30.8
2021-02-06T18:12:00Z,00000200,01000000,0000.51,0000.12,-000.16,0000.54,0000.23,-000.14,-000.12,-000.19,-000.43,15.7,22.7,,00.0,0655.6,30.8
2021-02-06T18:13:00Z,00000200,01000000,0000.89,0000.19,-000.01,0000.69,-000.15,0000.19,-000.22,-000.10,0000.14,15.6,22.6,,00.0,0655.6,30.8
2021-02-06T18:14:00Z,00000200,01000000,-000.33,0000.05,0000.01,-000.12,0000.14,0000.05,0000.15,-000.28,-000.05,15.6,22.6,,00.0,0655.6,30.8
2021-02-06T18:15:00Z,00000200,01000000,0000.32,0000.04,0000.07,0000.23,0000.04,0000.03,0000.24,0000.48,0000.51,15.6,22.5,,00.0,0655.6,30.8
2021-02-06T18:16:00Z,00000200,01000000,0000.52,0000.41,-000.12,0000.36,0000.36,-000.03,0000.04,0000.19,-000.21,15.6,22.6,,00.0,0655.6,30.8
2021-02-06T18:17:00Z,00000200,01000000,-000.36,0000.20,0000.12,0000.38,-000.15,0000.08,0000.27,0000.65,0000.40,15.7,22.6,,00.0,0655.6,30.8
2021-02-06T18:18:00Z,00000200,01000000,0000.43,-000.08,-000.05,0000.17,-000.26,0000.11,0000.04,-000.38,0000.03,15.7,22.6,,00.0,0655.6,30.8
2021-02-06T18:19:00Z,00000200,01000000,0000.70,-000.15,-000.11,0000.68,0000.18,-000.27,0000.23,0000.46,-000.05,15.8,22.6,,00.0,0655.6,30.9
2021-02-06T18:20:00Z,00000200,01000000,0000.44,-000.23,0000.04,0000.32,0000.17,0000.23,-000.21,0000.02,0000.21,15.8,22.7,,00.0,0655.6,30.9
2021-02-06T18:21:00Z,00000200,01000000,-000.17,-000.03,0000.11,0000.22,0000.03,0000.38,0000.17,-000.37,0000.11,15.8,22.7,,00.0,0655.6,30.9
2021-02-06T18:22:00Z,00000200,01000000,-000.02,0000.04,0000.03,-000.13,0000.18,-000.01,0000.23,0000.53,-000.00,15.8,22.7,,00.0,0655.6,30.9
2021-02-06T18:23:00Z,00000200,01000000,-000.28,-000.23,0000.03,0000.22,0000.14,-000.02,0000.09,0000.17,-000.08,15.8,22.6,,00.0,0655.6,30.9
2021-02-06T18:24:00Z,00000200,01000000,0000.36,-000.00,0000.02,0000.35,-000.16,0000.25,0000.16,-000.04,-000.03,15.8,22.6,,00.0,0655.6,30.8
2021-02-06T18:25:00Z,00000200,01000000,0000.12,-000.10,0000.03,0000.44,-000.09,0000.10,0000.35,0000.30,0000.27,15.7,22.6,,00.0,0655.6,30.8
2021-02-06T18:26:00Z,00000200,01000000,0000.16,0000.31,0000.21,-000.13,0000.07,0000.04,-000.02,-000.49,-000.30,15.7,22.5,,00.0,0655.6,30.8
2021-02-06T18:27:00Z,00000200,01000000,0000.06,-000.13,-000.09,0000.19,-000.07,-000.16,0000.30,0000.13,0000.25,15.6,22.5,,00.0,0655.5,30.8
2021-02-06T18:28:00Z,00000200,01000000,0000.17,-000.10,0000.13,-000.17,0000.01,-000.02,-000.32,0000.53,-000.01,15.5,22.5,,00.0,0655.5,30.8
2021-02-06T18:29:00Z,00000200,01000000,-000.11,-000.01,0000.11,-000.56,-000.21,-000.11,-000.22,-000.16,0000.07,15.5,22.4,,00.0,0655.5,30.8
2021-02-06T18:30:00Z,00000200,01000000,0001.12,0000.26,-000.15,0000.25,0000.24,0000.14,0000.55,0000.23,0000.24,15.5,22.4,,00.0,0655.6,30.8
2021-02-06T18:31:00Z,00000200,01000000,0000.72,-000.06,-000.10,0000.36,0000.08,0000.11,0000.37,0000.03,0000.45,15.5,22.4,,00.0,0655.5,30.8
2021-02-06T18:32:00Z,00000200,01000000,-000.04,-000.04,-000.09,0000.05,-000.05,0000.10,0000.32,0000.63,0000.32,15.6,22.4,,00.0,0655.5,30.8
2021-02-06T18:33:00Z,00000200,01000000,0000.40,0000.25,-000.16,0000.03,0000.11,-000.19,0000.63,0000.32,0000.58,15.6,22.4,,00.0,0655.5,30.8
2021-02-06T18:34:00Z,00000200,01000000,0000.09,-000.16,-000.10,0000.04,0000.11,-000.05,0000.56,0001.09,0000.42,15.7,22.5,,00.0,0655.5,30.8
2021-02-06T18:35:00Z,00000200,01000000,0000.18,-000.08,-000.24,0000.07,0000.10,0000.00,0000.45,0000.07,-000.04,15.8,22.5,,00.0,0655.5,30.8
2021-02-06T18:36:00Z,00000200,01000000,-000.08,0000.04,0000.00,0000.29,-000.00,0000.04,-000.10,0000.20,0000.05,15.8,22.6,,00.0,0655.5,30.9
2021-02-06T18:37:00Z,00000200,01000000,0000.44,-000.18,0000.15,-000.02,-000.11,0000.11,0000.08,-000.07,-000.20,15.9,22.6,,00.0,0655.5,30.9
2021-02-06T18:38:00Z,00000200,01000000,0000.18,-000.03,0000.18,0000.43,0000.05,0000.09,0000.10,-000.19,0000.19,16.0,22.6,,00.0,0655.6,30.9
2021-02-06T18:39:00Z,00000200,01000000,0000.15,0000.06,-000.01,0000.58,0000.21,-000.27,-000.23,-000.23,-000.32,16.0,22.7,,00.0,0655.6,30.9
2021-02-06T18:40:00Z,00000200,01000000,0000.02,0000.00,-000.19,0000.48,-000.04,0000.09,-000.37,-000.28,-000.28,16.1,22.7,,00.0,0655.6,30.9
2021-02-06T18:41:00Z,00000200,01000000,-000.44,0000.15,0000.06,0000.46,-000.14,-000.02,0000.20,0000.20,0000.33,16.1,22.7,,00.0,0655.7,30.9
2021-02-06T18:42:00Z,00000200,01000000,0000.15,-000.17,0000.03,0000.64,0000.13,-000.24,-000.56,-000.02,-000.20,16.0,22.7,,00.0,0655.7,30.9
2021-02-06T18:43:00Z,00000200,01000000,0000.42,-000.04,-000.16,0000.10,-000.16,-000.18,-000.04,-000.17,-000.01,16.0,22.7,,00.0,0655.7,30.9
2021-02-06T18:44:00Z,00000200,01000000,0000.41,-000.17,0000.06,0000.05,0000.15,0000.13,0000.16,-000.46,-000.27,15.9,22.6,,00.0,0655.7,30.9
2021-02-06T18:45:00Z,00000200,01000000,-000.29,-000.21,0000.21,0000.26,-000.02,-000.01,0000.04,0000.33,0000.28,15.9,22.6,,00.0,0655.7,30.8
2021-02-06T18:46:00Z,00000200,01000000,0000.38,0000.02,0000.20,0000.02,-000.22,-000.11,0000.52,0000.28,0000.43,15.9,22.6,,00.0,0655.7,30.9
2021-02-06T18:47:00Z,00000200,01000000,-000.42,0000.12,0000.15,-000.06,0000.09,0000.04,-000.02,0000.21,-000.10,15.9,22.6,,00.0,0655.7,30.9
2021-02-06T18:48:00Z,00000200,01000000,-000.20,-000.16,0000.28,-000.11,0000.11,-000.10,0000.35,0000.78,0000.42,16.0,22.6,,00.0,0655.7,30.9
2021-02-06T18:49:00Z,00000200,01000000,-000.34,0000.10,0000.25,0000.20,-000.10,0000.04,0000.69,0000.22,0000.51,16.1,22.7,,00.0,0655.6,30.9
2021-02-06T18:50:00Z,00000200,01000000,0000.33,0000.14,-000.02,0000.59,0000.18,-000.08,-000.09,0000.29,-000.08,16.1,22.7,,00.0,0655.6,30.9
2021-02-06T18:51:00Z,00000200,01000000,0000.51,0000.13,0000.04,-000.12,-000.14,0000.14,-000.10,-000.75,-000.65,16.2,22.7,,00.0,0655.6,30.9
2021-02-06T18:52:00Z,00000200,01000000,0000.26,0000.04,0000.24,0000.22,-000.14,0000.16,-000.11,0000.32,0000.12,16.2,22.7,,00.0,0655.7,30.9
2021-02-06T18:53:00Z,00000200,01000000,-000.51,-000.12,-000.03,0000.45,-000.12,-000.25,-000.16,-000.40,0000.03,16.1,22.7,,00.0,0655.7,30.9
2021-02-06T18:54:00Z,00000200,01000000,0000.52,-000.05,0000.16,0000.38,0000.09,-000.09,-000.17,0000.32,-000.16,16.1,22.7,,00.0,0655.7,30.9
2021-02-06T18:55:00Z,00000200,01000000,0000.07,-000.13,-000.13,0000.17,0000.07,-000.05,0000.09,-000.73,-000.08,16.0,22.7,,00.0,0655.7,30.9
2021-02-06T18:56:00Z,00000200,01000000,0000.59,0000.08,0000.03,0000.45,0000.25,-000.20,0000.06,0000.48,0000.42,15.9,22.6,,00.0,0655.7,30.9
2021-02-06T18:57:00Z,00000200,41000000,,,,,,,-000.21,-000.18,-000.09,16.0,22.6,,00.0,0655.7,30.9
2021-02-06T18:58:00Z,00000200,61000000,,,,,,,0000.08,0000.02,-000.62,15.5,22.8,,00.0,0654.9,30.8
2021-02-06T18:59:00Z,00000200,21000000,,,,,,,-000.44,-000.70,-000.13,15.4,22.9,,00.0,0654.9,30.8
